User: anonymous   Login
Location: Unspecified
(0.0000°N, 0.0000°E)
Time: 03:40:13
(UTC+00:00)
Language:

Explorer 27 - Orbit

View from above orbital plane
View from above orbital plane
View from above satellite
View from above satellite

Ground track
Ground track

The orbit data is extracted from the following two-line orbital elements,

1 01328U 65032A   18230.47197088  .00000010  00000-0  13869-3 0  9999
2 01328  41.1864  10.3389 0253726 191.1269 168.3799 13.38573907605514
Epoch (UTC): 18 August 2018 11:19:38
Eccentricity: 0.0253726
inclination: 41.1864°
perigee height: 924 km
apogee height: 1305 km
right ascension of ascending node: 10.3389°
argument of perigee: 191.1269°
revolutions per day: 13.38573907
mean anomaly at epoch: 168.3799°
orbit number at epoch: 60551

The dashed part of the orbit path shows where the satellite is in the earth's shadow,  

DLR